[[{"header":{"parameterUnit":"m.s-1","parameterCategory":1,"la1":30.2992,"la2":30.254,"lo1":-89.0895,"lo2":-89.0443,"dy":0.0025,"dx":0.0025,"nx":19,"ny":19,"refTime":"2026-04-05T03:00:00:Z","depth":0,"parameterNumber":2,"parameterNumberName":"U-component_of_WINDS"},"data":[0,0,0,-2.8215,-2.8216,-2.8262,-2.8262,-2.8347,-2.8348,0,0,0,0,0,0,0,0,0,0,0,-2.8218,-2.8219,-2.8215,-2.8216,-2.8262,-2.8262,-2.8346,-2.8348,0,0,0,0,0,0,0,0,0,0,0,-2.8217,-2.8219,-2.822,-2.8217,-2.8262,-2.8262,-2.8346,-2.8302,0,0,0,0,0,0,0,0,0,0,-2.8254,-2.8272,-2.8218,-2.822,-2.8217,-2.8262,-2.8262,-2.83,-2.8305,-2.8338,0,-2.8371,0,-2.8361,-2.8355,-2.8355,0,0,0,-2.8204,-2.8268,-2.8265,-2.822,-2.8218,-2.8262,-2.8238,-2.8303,-2.8309,-2.8345,-2.8372,-2.8374,-2.8362,-2.8356,-2.8356,-2.8583,-2.8585,0,0,-2.8202,-2.8235,-2.8261,-2.827,-2.8265,-2.8236,-2.8239,-2.8306,-2.8337,-2.8372,-2.8376,-2.8363,-2.8356,-2.8357,-2.8581,-2.8583,0,0,0,-2.8203,-2.8234,-2.8229,-2.8267,-2.8274,-2.8238,-2.8241,-2.8334,-2.833,-2.8376,-2.8364,-2.8357,-2.8358,-2.858,-2.8582,-2.8696,0,0,0,-2.8201,-2.8234,-2.8228,-2.8249,-2.8273,-2.8305,-2.8269,-2.8325,-2.8332,-2.8364,-2.8357,-2.836,-2.8578,-2.8581,-2.8689,-2.8744,0,0,0,-2.8209,-2.8235,-2.8247,-2.8251,-2.8271,-2.8303,-2.8302,-2.8326,-2.8325,-2.8356,-2.836,-2.8577,-2.858,-2.8682,-2.8734,-2.8815,0,0,0,-2.8228,-2.8347,-2.8249,-2.8377,-2.8271,-2.8372,-2.8301,-2.8374,-2.8414,-2.8358,-2.8578,-2.8582,-2.868,-2.8727,-2.8808,-2.889,-2.8926,0,0,-2.8397,-2.8369,-2.8441,-2.8355,-2.8482,-2.8362,-2.8505,-2.851,-2.8483,-2.8551,-2.8556,-2.8691,-2.8733,-2.8813,-2.9117,-2.9147,0,0,0,-2.8506,-2.8559,-2.8585,-2.8624,-2.863,-2.864,-2.8619,-2.862,-2.8677,-2.8525,-2.874,-2.8764,-2.881,-2.8847,-2.8872,-2.891,-2.86,-2.86,-2.8599,-2.8794,-2.8752,-2.8869,-2.8833,-2.8871,-2.8847,-2.8875,-2.8873,-2.8819,-2.8871,-2.8892,-2.9081,-2.9126,-2.9145,-2.9185,-2.893,-2.893,-2.893,-2.8931,-2.9039,-2.9108,-2.9032,-2.912,-2.9074,-2.9147,-2.9128,-2.9088,-2.9149,-2.9062,-2.91,-2.901,-2.9178,-2.9211,-2.8939,-2.8937,-2.8936,-2.8936,-2.8935,-2.9225,-2.9251,-2.9249,-2.93,-2.9344,-2.9302,-2.9364,-2.932,-2.9279,-2.9316,-2.9334,-2.9332,-2.9326,-2.9328,-2.9328,-2.9329,-2.9329,-2.933,-2.933,-2.9419,-2.9414,-2.9472,-2.9487,-2.9506,-2.9525,-2.9501,-2.9518,-2.9526,-2.9489,-2.9489,-2.9432,-2.9202,-2.9146,-2.934,-2.9339,-2.9337,-2.9336,-2.9336,-2.9687,-2.9619,-2.9709,-2.9728,-2.9741,-2.9788,-2.9729,-2.9768,-2.9776,-2.9808,-2.9741,-2.9578,-2.9547,-2.9526,-2.948,-2.9749,-2.9749,-2.9749,-2.9749,-2.9846,-2.9824,-2.9906,-2.9938,-2.9965,-2.9921,-3.0024,-3.0006,-2.9977,-2.998,-2.9933,-2.9868,-2.9849,-2.9828,-2.9802,-2.9758,-3.0092,-3.0092,-3.0092,-3.0009,-2.9988,-3.0084,-3.0054,-3.0061,-3.0068,-3.0164,-3.0205,-3.0157,-3.0105,-2.9981,-2.9966,-2.9859,-2.9826,-2.9774,-2.9734,-2.9652,0,0]},{"header":{"parameterUnit":"m.s-1","parameterCategory":1,"la1":30.2992,"la2":30.254,"lo1":-89.0895,"lo2":-89.0443,"dy":0.0025,"dx":0.0025,"nx":19,"ny":19,"refTime":"2026-04-05T03:00:00:Z","depth":0,"parameterNumber":3,"parameterNumberName":"V-component_of_WINDS"},"data":[0,0,0,-7.4202,-7.4206,-7.4388,-7.4388,-7.4633,-7.4636,0,0,0,0,0,0,0,0,0,0,0,-7.4161,-7.4164,-7.4202,-7.4207,-7.4387,-7.4388,-7.4633,-7.4636,0,0,0,0,0,0,0,0,0,0,0,-7.416,-7.4163,-7.4166,-7.4208,-7.4387,-7.4388,-7.4632,-7.449,0,0,0,0,0,0,0,0,0,0,-7.4311,-7.4287,-7.4162,-7.4166,-7.4209,-7.4387,-7.4388,-7.4483,-7.4499,-7.4559,0,-7.4619,0,-7.4632,-7.4653,-7.4654,0,0,0,-7.4196,-7.4274,-7.4312,-7.4166,-7.4211,-7.4387,-7.4303,-7.4491,-7.451,-7.458,-7.4623,-7.4631,-7.4636,-7.4655,-7.4656,-7.5048,-7.505,0,0,-7.4186,-7.42,-7.4299,-7.4324,-7.4302,-7.4297,-7.4309,-7.4502,-7.4548,-7.4623,-7.4637,-7.464,-7.4657,-7.4659,-7.5045,-7.5048,0,0,0,-7.4165,-7.4193,-7.4226,-7.4315,-7.4346,-7.4303,-7.4316,-7.4539,-7.4549,-7.4639,-7.4643,-7.4658,-7.4662,-7.5043,-7.5046,-7.5177,0,0,0,-7.4158,-7.4181,-7.4222,-7.4232,-7.4343,-7.4446,-7.4349,-7.4535,-7.4557,-7.4642,-7.4658,-7.4664,-7.504,-7.5045,-7.5168,-7.5236,0,0,0,-7.4145,-7.4179,-7.421,-7.4232,-7.4311,-7.4443,-7.4463,-7.454,-7.456,-7.4654,-7.4665,-7.5039,-7.5044,-7.516,-7.5222,-7.5343,0,0,0,-7.4134,-7.4321,-7.4212,-7.4422,-7.431,-7.4523,-7.4462,-7.4619,-7.4715,-7.466,-7.5041,-7.5046,-7.5157,-7.5214,-7.5335,-7.5448,-7.5497,0,0,-7.4378,-7.4351,-7.4474,-7.4381,-7.4619,-7.4494,-7.4748,-7.4822,-7.4816,-7.4969,-7.4979,-7.5171,-7.5221,-7.5341,-7.5764,-7.5803,0,0,0,-7.4555,-7.4644,-7.4703,-7.4799,-7.4862,-7.492,-7.4954,-7.4981,-7.5111,-7.49,-7.5246,-7.5276,-7.5346,-7.5399,-7.5432,-7.5491,-7.5071,-7.5071,-7.507,-7.4919,-7.4905,-7.5106,-7.5114,-7.5206,-7.524,-7.5312,-7.5353,-7.5309,-7.5391,-7.5437,-7.5696,-7.5759,-7.5784,-7.5845,-7.5495,-7.5496,-7.5496,-7.5497,-7.5275,-7.5398,-7.5337,-7.5511,-7.5493,-7.5637,-7.5675,-7.5639,-7.5769,-7.566,-7.5721,-7.5604,-7.5827,-7.588,-7.5506,-7.5505,-7.5503,-7.5503,-7.5502,-7.5512,-7.5569,-7.5601,-7.5737,-7.5842,-7.584,-7.5969,-7.5947,-7.5926,-7.5986,-7.6031,-7.6029,-7.6024,-7.6009,-7.601,-7.6011,-7.6012,-7.6013,-7.6013,-7.5746,-7.5778,-7.5891,-7.5974,-7.6032,-7.6105,-7.614,-7.6195,-7.6249,-7.6223,-7.6223,-7.617,-7.5852,-7.5773,-7.6027,-7.6024,-7.6023,-7.6021,-7.602,-7.6112,-7.6026,-7.6201,-7.626,-7.6355,-7.646,-7.6431,-7.6544,-7.6586,-7.6649,-7.6584,-7.6353,-7.6322,-7.6296,-7.623,-7.6587,-7.6587,-7.6587,-7.6587,-7.6312,-7.6296,-7.647,-7.6564,-7.6654,-7.6646,-7.6839,-7.6868,-7.6882,-7.6906,-7.6851,-7.6761,-7.6735,-7.6721,-7.6685,-7.6623,-7.7072,-7.7073,-7.7073,-7.6537,-7.6528,-7.67,-7.6717,-7.679,-7.6851,-7.7033,-7.714,-7.7138,-7.7092,-7.6924,-7.6904,-7.6759,-7.6713,-7.6664,-7.6609,-7.6495,0,0]}]]